| time (UTC) | temp F | wind direction | speed MPH | gust MPH | rain 1hr in | rain 24hr in | rain mn in | humidity % | barometer mb |
| 20260506091317 | 63 | 278 | 9.0 | 0.0 | 0.44 | 0.00 | 0.00 | 33 | |
| 20260506090817 | 64 | 302 | 3.0 | 0.0 | 0.44 | 0.00 | 0.00 | 34 | |
| 20260506090318 | 64 | 359 | 5.0 | 0.0 | 0.44 | 0.00 | 0.00 | 34 | |
| 20260506085817 | 64 | 359 | 3.0 | 0.0 | 0.44 | 0.00 | 0.00 | 34 | |
| 20260506085317 | 64 | 322 | 7.0 | 0.0 | 0.44 | 0.00 | 0.00 | 34 | |
| 20260506084817 | 64 | 283 | 8.0 | 0.0 | 0.44 | 0.00 | 0.00 | 34 | |
| 20260506084317 | 64 | 307 | 10.0 | 0.0 | 0.44 | 0.00 | 0.00 | 34 | |
| 20260506083817 | 64 | 53 | 6.0 | 0.0 | 0.44 | 0.00 | 0.00 | 33 | |
| 20260506083318 | 65 | 350 | 3.0 | 0.0 | 0.44 | 0.00 | 0.00 | 33 | |
| 20260506082817 | 65 | 319 | 8.0 | 0.0 | 0.44 | 0.00 | 0.00 | 32 | |
| 20260506082317 | 65 | 319 | 0.0 | 0.0 | 0.44 | 0.00 | 0.00 | 31 | |
| 20260506081318 | 66 | 312 | 8.0 | 0.0 | 0.44 | 0.00 | 0.00 | 28 | |
| 20260506080818 | 66 | 332 | 0.0 | 0.0 | 0.44 | 0.00 | 0.00 | 26 | |
| 20260506080319 | 66 | 315 | 5.0 | 0.0 | 0.44 | 0.00 | 0.00 | 26 | |
| 20260506073318 | 68 | 266 | 5.0 | 0.0 | 0.44 | 0.00 | 0.00 | 23 | |
| 20260506072818 | 68 | 340 | 6.0 | 0.0 | 0.44 | 0.00 | 0.00 | 23 | |
| 20260506072318 | 68 | 308 | 12.0 | 0.0 | 0.44 | 0.00 | 0.00 | 23 | |
| 20260506071818 | 68 | 260 | 7.0 | 0.0 | 0.44 | 0.00 | 0.00 | 23 | |
| 20260506071318 | 68 | 273 | 8.0 | 0.0 | 0.44 | 0.00 | 0.00 | 23 | |
| 20260506070817 | 68 | 180 | 7.0 | 0.0 | 0.44 | 0.00 | 0.00 | 23 | |
| 20260506070318 | 68 | 1 | 0.0 | 0.0 | 0.44 | 0.00 | 0.00 | 23 | |
| 20260506062318 | 69 | 281 | 10.0 | 0.0 | 0.44 | 0.00 | 0.00 | 23 | |
| 20260506061818 | 69 | 314 | 10.0 | 0.0 | 0.44 | 0.00 | 0.00 | 22 | |
| 20260506061319 | 69 | 283 | 9.0 | 0.0 | 0.44 | 0.00 | 0.00 | 22 | |
| 20260506060818 | 69 | 210 | 10.0 | 0.0 | 0.44 | 0.00 | 0.00 | 22 | |
| 20260506060318 | 69 | 256 | 11.0 | 0.0 | 0.44 | 0.00 | 0.00 | 21 | |
| 20260506051318 | 70 | 262 | 8.0 | 0.0 | 0.44 | 0.00 | 0.00 | 21 | |
| 20260506050818 | 70 | 225 | 14.0 | 0.0 | 0.44 | 0.00 | 0.00 | 21 | |
| 20260506050318 | 70 | 248 | 11.0 | 0.0 | 0.44 | 0.00 | 0.00 | 20 | |
| 20260506044818 | 71 | 218 | 15.0 | 0.0 | 0.44 | 0.00 | 0.00 | 19 | |
| 20260506044318 | 71 | 253 | 11.0 | 0.0 | 0.44 | 0.00 | 0.00 | 18 | |
| 20260506043818 | 71 | 294 | 17.0 | 0.0 | 0.44 | 0.00 | 0.00 | 18 | |
| 20260506043318 | 71 | 248 | 10.0 | 0.0 | 0.44 | 0.00 | 0.00 | 18 | |
| 20260506042818 | 71 | 240 | 12.0 | 0.0 | 0.44 | 0.00 | 0.00 | 18 | |
| 20260506042318 | 71 | 246 | 9.0 | 0.0 | 0.44 | 0.00 | 0.00 | 17 | |
| 20260506041818 | 71 | 280 | 5.0 | 0.0 | 0.44 | 0.00 | 0.00 | 17 | |
| 20260506041318 | 71 | 240 | 10.0 | 0.0 | 0.44 | 0.00 | 0.00 | 17 | |
| 20260506040818 | 72 | 211 | 6.0 | 0.0 | 0.44 | 0.00 | 0.00 | 16 | |
| 20260506040318 | 72 | 236 | 18.0 | 0.0 | 0.44 | 0.00 | 0.00 | 16 | |
| 20260506035818 | 72 | 245 | 7.0 | 0.0 | 0.44 | 0.00 | 0.00 | 15 | |
| 20260506035318 | 72 | 266 | 14.0 | 0.0 | 0.44 | 0.00 | 0.00 | 15 | |
| 20260506034818 | 72 | 253 | 9.0 | 0.0 | 0.44 | 0.00 | 0.00 | 15 | |
| 20260506034319 | 72 | 266 | 9.0 | 0.0 | 0.44 | 0.00 | 0.00 | 15 | |
| 20260506033818 | 72 | 300 | 7.0 | 0.0 | 0.44 | 0.00 | 0.00 | 16 | |
| 20260506033319 | 72 | 287 | 9.0 | 0.0 | 0.44 | 0.00 | 0.00 | 17 | |
| 20260506032818 | 72 | 226 | 4.0 | 0.0 | 0.44 | 0.00 | 0.00 | 18 | |
| 20260506032318 | 73 | 270 | 6.0 | 0.0 | 0.44 | 0.00 | 0.00 | 18 | |
| 20260506031818 | 73 | 271 | 17.0 | 0.0 | 0.44 | 0.00 | 0.00 | 17 | |
| 20260506031318 | 73 | 14 | 8.0 | 0.0 | 0.44 | 0.00 | 0.00 | 17 | |
| 20260506030818 | 73 | 207 | 7.0 | 0.0 | 0.44 | 0.00 | 0.00 | 17 | |
| 20260506030318 | 73 | 217 | 8.0 | 0.0 | 0.44 | 0.00 | 0.00 | 17 | |
| 20260506025818 | 73 | 1 | 12.0 | 0.0 | 0.44 | 0.00 | 0.00 | 17 | |
| 20260506025319 | 73 | 291 | 5.0 | 0.0 | 0.44 | 0.00 | 0.00 | 17 | |
| 20260506024818 | 73 | 276 | 5.0 | 0.0 | 0.44 | 0.00 | 0.00 | 18 | |
| 20260506024318 | 73 | 197 | 16.0 | 0.0 | 0.44 | 0.00 | 0.00 | 18 | |
| 20260506023818 | 74 | 266 | 4.0 | 0.0 | 0.44 | 0.00 | 0.00 | 19 | |
| 20260506023318 | 74 | 339 | 6.0 | 0.0 | 0.44 | 0.00 | 0.00 | 19 | |
| 20260506022818 | 74 | 263 | 12.0 | 0.0 | 0.44 | 0.00 | 0.00 | 19 | |
| 20260506022318 | 74 | 252 | 0.0 | 0.0 | 0.44 | 0.00 | 0.00 | 19 | |
| 20260506021818 | 74 | 323 | 8.0 | 0.0 | 0.44 | 0.00 | 0.00 | 19 | |
| 20260506021318 | 74 | 271 | 2.0 | 0.0 | 0.44 | 0.00 | 0.00 | 19 | |
| 20260506020818 | 74 | 287 | 5.0 | 0.0 | 0.44 | 0.00 | 0.00 | 18 | |
| 20260506020318 | 74 | 242 | 10.0 | 0.0 | 0.44 | 0.00 | 0.00 | 18 | |
| 20260506015818 | 74 | 332 | 7.0 | 0.0 | 0.44 | 0.00 | 0.00 | 18 | |
| 20260506015318 | 74 | 264 | 0.0 | 0.0 | 0.44 | 0.00 | 0.00 | 18 | |
| 20260506014818 | 75 | 203 | 16.0 | 0.0 | 0.44 | 0.00 | 0.00 | 18 | |
| 20260506014318 | 75 | 217 | 11.0 | 0.0 | 0.44 | 0.00 | 0.00 | 18 | |
| 20260506013818 | 75 | 293 | 8.0 | 0.0 | 0.44 | 0.00 | 0.00 | 18 | |
| 20260506013318 | 75 | 270 | 8.0 | 0.0 | 0.44 | 0.00 | 0.00 | 13 | |
| 20260506012818 | 75 | 248 | 3.0 | 0.0 | 0.44 | 0.00 | 0.00 | 13 | |
| 20260506012318 | 75 | 249 | 9.0 | 0.0 | 0.44 | 0.00 | 0.00 | 13 | |
| 20260506011818 | 75 | 273 | 10.0 | 0.0 | 0.44 | 0.00 | 0.00 | 13 | |
| 20260506011319 | 76 | 281 | 6.0 | 0.0 | 0.44 | 0.00 | 0.00 | 14 | |
| 20260506010818 | 76 | 250 | 8.0 | 0.0 | 0.44 | 0.00 | 0.00 | 15 | |
| 20260506010318 | 76 | 238 | 11.0 | 0.0 | 0.44 | 0.00 | 0.00 | 15 | |
| 20260506005818 | 76 | 177 | 15.0 | 0.0 | 0.44 | 0.00 | 0.00 | 15 | |
| 20260506005318 | 76 | 215 | 7.0 | 0.0 | 0.44 | 0.00 | 0.00 | 20 | |
| 20260506004818 | 76 | 231 | 5.0 | 0.0 | 0.44 | 0.00 | 0.00 | 15 | |
| 20260506004318 | 76 | 256 | 9.0 | 0.0 | 0.44 | 0.00 | 0.00 | 20 | |
| 20260506003818 | 76 | 314 | 7.0 | 0.0 | 0.44 | 0.00 | 0.00 | 20 | |
| 20260506003318 | 76 | 267 | 10.0 | 0.0 | 0.44 | 0.00 | 0.00 | 20 | |
| 20260506002818 | 76 | 293 | 8.0 | 0.0 | 0.44 | 0.00 | 0.00 | 20 | |
| 20260506002318 | 76 | 243 | 16.0 | 0.0 | 0.44 | 0.00 | 0.00 | 15 | |
| 20260506001818 | 76 | 238 | 10.0 | 0.0 | 0.44 | 0.00 | 0.00 | 17 | |
| 20260506001319 | 76 | 284 | 3.0 | 0.0 | 0.44 | 0.00 | 0.00 | 23 | |
| 20260506000818 | 76 | 359 | 3.0 | 0.0 | 0.44 | 0.00 | 0.00 | 23 | |
| 20260506000318 | 76 | 307 | 8.0 | 0.0 | 0.44 | 0.00 | 0.00 | 23 | |
| 20260505235819 | 76 | 359 | 6.0 | 0.0 | 0.44 | 0.00 | 0.00 | 24 | |
| 20260505235318 | 76 | 250 | 11.0 | 0.0 | 0.44 | 0.00 | 0.00 | 24 | |
| 20260505234819 | 76 | 294 | 6.0 | 0.0 | 0.44 | 0.00 | 0.00 | 24 | |
| 20260505234319 | 76 | 325 | 10.0 | 0.0 | 0.44 | 0.00 | 0.00 | 24 | |
| 20260505233818 | 76 | 250 | 9.0 | 0.0 | 0.44 | 0.00 | 0.00 | 24 | |
| 20260505233318 | 76 | 323 | 7.0 | 0.0 | 0.44 | 0.00 | 0.00 | 25 | |
| 20260505232818 | 76 | 291 | 6.0 | 0.0 | 0.44 | 0.00 | 0.00 | 26 | |
| 20260505232318 | 76 | 301 | 4.0 | 0.0 | 0.44 | 0.00 | 0.00 | 27 | |
| 20260505231818 | 76 | 318 | 0.0 | 0.0 | 0.44 | 0.00 | 0.00 | 27 | |
| 20260505231318 | 76 | 20 | 8.0 | 0.0 | 0.44 | 0.00 | 0.00 | 21 | |
| 20260505230818 | 76 | 345 | 4.0 | 0.0 | 0.44 | 0.00 | 0.00 | 22 | |
| 20260505230318 | 76 | 263 | 0.0 | 0.0 | 0.44 | 0.00 | 0.00 | 22 | |
| 20260505225818 | 76 | 228 | 0.0 | 0.0 | 0.44 | 0.00 | 0.00 | 16 | |
| 20260505225318 | 75 | 333 | 10.0 | 0.0 | 0.44 | 0.00 | 0.00 | 16 | |
| 20260505224817 | 76 | 255 | 8.0 | 0.0 | 0.44 | 0.00 | 0.00 | 22 | |
| 20260505224318 | 76 | 307 | 7.0 | 0.0 | 0.44 | 0.00 | 0.00 | 28 | |
| 20260505223818 | 76 | 249 | 4.0 | 0.0 | 0.44 | 0.00 | 0.00 | 28 | |
| 20260505223317 | 76 | 284 | 8.0 | 0.0 | 0.44 | 0.00 | 0.00 | 28 | |
| 20260505222817 | 76 | 300 | 5.0 | 0.0 | 0.44 | 0.00 | 0.00 | 28 | |
| 20260505222317 | 76 | 300 | 9.0 | 0.0 | 0.44 | 0.00 | 0.00 | 28 | |
| 20260505221817 | 76 | 312 | 15.0 | 0.0 | 0.44 | 0.00 | 0.00 | 28 | |
| 20260505221319 | 76 | 332 | 12.0 | 0.0 | 0.44 | 0.00 | 0.00 | 29 | |
| 20260505220819 | 77 | 318 | 12.0 | 0.0 | 0.44 | 0.00 | 0.00 | 27 | |
| 20260505220817 | 76 | 259 | 4.0 | 0.0 | 0.44 | 0.00 | 0.00 | 28 | |
| 20260505220317 | 77 | 318 | 12.0 | 0.0 | 0.44 | 0.00 | 0.00 | 27 | |
| 20260505215819 | 77 | 221 | 10.0 | 0.0 | 0.44 | 0.00 | 0.00 | 20 | |
| 20260505215319 | 77 | 264 | 0.0 | 0.0 | 0.44 | 0.00 | 0.00 | 21 | |
| 20260505214818 | 77 | 316 | 6.0 | 0.0 | 0.44 | 0.00 | 0.00 | 21 | |
| 20260505214318 | 77 | 276 | 14.0 | 0.0 | 0.44 | 0.00 | 0.00 | 22 | |
| 20260505213818 | 76 | 338 | 7.0 | 0.0 | 0.44 | 0.00 | 0.00 | 22 | |
| 20260505213317 | 76 | 269 | 5.0 | 0.0 | 0.44 | 0.00 | 0.00 | 29 | |
| 20260505212817 | 76 | 4 | 4.0 | 0.0 | 0.44 | 0.00 | 0.00 | 29 | |
| 20260505212318 | 76 | 308 | 16.0 | 0.0 | 0.44 | 0.00 | 0.00 | 31 | |
| 20260505211818 | 75 | 278 | 6.0 | 0.0 | 0.44 | 0.00 | 0.00 | 31 | |
| 20260505211318 | 75 | 302 | 8.0 | 0.0 | 0.44 | 0.00 | 0.00 | 31 | |
| 20260505210817 | 75 | 328 | 7.0 | 0.0 | 0.44 | 0.00 | 0.00 | 30 | |
| 20260505210317 | 75 | 0 | 5.0 | 0.0 | 0.44 | 0.00 | 0.00 | 31 | |
| 20260505205817 | 75 | 325 | 8.0 | 0.0 | 0.44 | 0.00 | 0.00 | 30 | |
| 20260505205318 | 76 | 8 | 7.0 | 0.0 | 0.44 | 0.00 | 0.00 | 29 | |
| 20260505204818 | 76 | 293 | 5.0 | 0.0 | 0.44 | 0.00 | 0.00 | 30 | |
| 20260505204317 | 76 | 269 | 0.0 | 0.0 | 0.44 | 0.00 | 0.00 | 29 | |
| 20260505203817 | 76 | 354 | 6.0 | 0.0 | 0.44 | 0.00 | 0.00 | 30 | |
| 20260505203318 | 76 | 359 | 6.0 | 0.0 | 0.44 | 0.00 | 0.00 | 31 | |
| 20260505202818 | 75 | 326 | 3.0 | 0.0 | 0.44 | 0.00 | 0.00 | 32 | |
| 20260505202317 | 75 | 359 | 3.0 | 0.0 | 0.44 | 0.00 | 0.00 | 32 | |
| 20260505201818 | 75 | 318 | 3.0 | 0.0 | 0.44 | 0.00 | 0.00 | 31 | |
| 20260505201318 | 74 | 15 | 4.0 | 0.0 | 0.44 | 0.00 | 0.00 | 32 | |
| 20260505200317 | 74 | 20 | 10.0 | 0.0 | 0.44 | 0.00 | 0.00 | 32 | |
| 20260505195818 | 74 | 263 | 4.0 | 0.0 | 0.44 | 0.00 | 0.00 | 32 | |
| 20260505195318 | 74 | 13 | 5.0 | 0.0 | 0.44 | 0.00 | 0.00 | 31 | |
| 20260505194817 | 75 | 188 | 7.0 | 0.0 | 0.44 | 0.00 | 0.00 | 31 | |
| 20260505194318 | 75 | 312 | 7.0 | 0.0 | 0.44 | 0.00 | 0.00 | 30 | |
| 20260505193818 | 75 | 188 | 5.0 | 0.0 | 0.44 | 0.00 | 0.00 | 29 | |
| 20260505193317 | 76 | 233 | 10.0 | 0.0 | 0.44 | 0.00 | 0.00 | 29 | |
| 20260505192818 | 75 | 262 | 6.0 | 0.0 | 0.44 | 0.00 | 0.00 | 29 | |
| 20260505192317 | 75 | 215 | 8.0 | 0.0 | 0.44 | 0.00 | 0.00 | 29 | |
| 20260505191817 | 74 | 301 | 12.0 | 0.0 | 0.44 | 0.00 | 0.00 | 30 | |
| 20260505191318 | 74 | 287 | 18.0 | 0.0 | 0.44 | 0.00 | 0.00 | 30 | |
| 20260505190817 | 73 | 248 | 5.0 | 0.0 | 0.44 | 0.00 | 0.00 | 30 | |
| 20260505190318 | 73 | 304 | 6.0 | 0.0 | 0.44 | 0.00 | 0.00 | 30 | |
| 20260505185818 | 73 | 194 | 12.0 | 0.0 | 0.44 | 0.00 | 0.00 | 29 | |
| 20260505185318 | 74 | 252 | 11.0 | 0.0 | 0.44 | 0.00 | 0.00 | 28 | |
| 20260505184818 | 74 | 204 | 13.0 | 0.0 | 0.44 | 0.00 | 0.00 | 28 | |
| 20260505184317 | 74 | 228 | 13.0 | 0.0 | 0.44 | 0.00 | 0.00 | 27 | |
| 20260505183818 | 75 | 221 | 17.0 | 0.0 | 0.44 | 0.00 | 0.00 | 27 | |
| 20260505183318 | 74 | 180 | 17.0 | 0.0 | 0.44 | 0.00 | 0.00 | 28 | |
| 20260505182818 | 74 | 276 | 12.0 | 0.0 | 0.44 | 0.00 | 0.00 | 27 | |
| 20260505182318 | 74 | 295 | 5.0 | 0.0 | 0.44 | 0.00 | 0.00 | 27 | |
| 20260505181817 | 75 | 314 | 9.0 | 0.0 | 0.44 | 0.00 | 0.00 | 27 | |
| 20260505181319 | 75 | 288 | 5.0 | 0.0 | 0.44 | 0.00 | 0.00 | 28 | |
| 20260505180818 | 76 | 14 | 0.0 | 0.0 | 0.44 | 0.00 | 0.00 | 28 | |
| 20260505180318 | 75 | 11 | 7.0 | 0.0 | 0.44 | 0.00 | 0.00 | 28 | |
| 20260505175818 | 75 | 305 | 5.0 | 0.0 | 0.44 | 0.00 | 0.00 | 29 | |
| 20260505175318 | 74 | 248 | 9.0 | 0.0 | 0.44 | 0.00 | 0.00 | 29 | |
| 20260505174818 | 74 | 288 | 0.0 | 0.0 | 0.44 | 0.00 | 0.00 | 28 | |
| 20260505174318 | 74 | 269 | 10.0 | 0.0 | 0.44 | 0.00 | 0.00 | 29 | |
| 20260505173818 | 74 | 236 | 10.0 | 0.0 | 0.44 | 0.00 | 0.00 | 30 | |
| 20260505173319 | 74 | 194 | 6.0 | 0.0 | 0.44 | 0.00 | 0.00 | 31 | |
| 20260505172818 | 74 | 253 | 8.0 | 0.0 | 0.44 | 0.00 | 0.00 | 33 | |
| 20260505172318 | 73 | 319 | 6.0 | 0.0 | 0.44 | 0.00 | 0.00 | 33 | |
| 20260505171818 | 72 | 224 | 5.0 | 0.0 | 0.44 | 0.00 | 0.00 | 34 | |
| 20260505171318 | 72 | 235 | 8.0 | 0.0 | 0.44 | 0.00 | 0.00 | 35 | |
| 20260505170817 | 71 | 240 | 9.0 | 0.0 | 0.44 | 0.00 | 0.00 | 35 | |
| 20260505170319 | 71 | 314 | 0.0 | 0.0 | 0.44 | 0.00 | 0.00 | 36 | |
| 20260505165817 | 70 | 263 | 6.0 | 0.0 | 0.44 | 0.00 | 0.00 | 36 | |
| 20260505165318 | 69 | 273 | 3.0 | 0.0 | 0.44 | 0.00 | 0.00 | 37 | |
| 20260505164817 | 69 | 305 | 0.0 | 0.0 | 0.44 | 0.00 | 0.00 | 36 | |
| 20260505164318 | 69 | 204 | 11.0 | 0.0 | 0.44 | 0.00 | 0.00 | 36 | |
| 20260505163818 | 70 | 255 | 7.0 | 0.0 | 0.44 | 0.00 | 0.00 | 35 | |
| 20260505163318 | 70 | 179 | 3.0 | 0.0 | 0.44 | 0.00 | 0.00 | 35 | |
| 20260505162818 | 70 | 267 | 5.0 | 0.0 | 0.44 | 0.00 | 0.00 | 35 | |
| 20260505162317 | 70 | 120 | 0.0 | 0.0 | 0.44 | 0.00 | 0.00 | 37 | |
| 20260505161819 | 69 | 120 | 0.0 | 0.0 | 0.44 | 0.00 | 0.00 | 37 | |
| 20260505161318 | 68 | 204 | 4.0 | 0.0 | 0.44 | 0.00 | 0.00 | 38 | |
| 20260505160818 | 68 | 257 | 6.0 | 0.0 | 0.44 | 0.00 | 0.00 | 39 | |
| 20260505160318 | 68 | 136 | 5.0 | 0.0 | 0.44 | 0.00 | 0.00 | 40 | |
| 20260505153319 | 67 | 35 | 0.0 | 0.0 | 0.44 | 0.00 | 0.00 | 42 | |
| 20260505152818 | 67 | 35 | 0.0 | 0.0 | 0.44 | 0.00 | 0.00 | 42 | |
| 20260505152318 | 67 | 37 | 0.0 | 0.0 | 0.44 | 0.00 | 0.00 | 42 | |
| 20260505151817 | 67 | 13 | 5.0 | 0.0 | 0.44 | 0.00 | 0.00 | 41 | |
| 20260505151319 | 67 | 336 | 3.0 | 0.0 | 0.44 | 0.00 | 0.00 | 31 | |
| 20260505150818 | 66 | 46 | 6.0 | 0.0 | 0.44 | 0.00 | 0.00 | 39 | |
| 20260505150319 | 66 | 4 | 7.0 | 0.0 | 0.44 | 0.00 | 0.00 | 39 | |
| 20260505140319 | 65 | 336 | 4.0 | 0.0 | 0.44 | 0.00 | 0.00 | 43 | |
| 20260505124818 | 63 | 343 | 7.0 | 0.0 | 0.44 | 0.00 | 0.00 | 45 | |
| 20260505124319 | 63 | 8 | 0.0 | 0.0 | 0.44 | 0.00 | 0.00 | 45 | |
| 20260505123819 | 63 | 3 | 8.0 | 0.0 | 0.44 | 0.00 | 0.00 | 45 | |
| 20260505123319 | 63 | 353 | 9.0 | 0.0 | 0.44 | 0.00 | 0.00 | 45 | |
| 20260505122819 | 63 | 4 | 13.0 | 0.0 | 0.44 | 0.00 | 0.00 | 45 | |
| 20260505122319 | 64 | 278 | 20.0 | 0.0 | 0.44 | 0.00 | 0.00 | 44 | |
| 20260505121818 | 64 | 23 | 11.0 | 0.0 | 0.44 | 0.00 | 0.00 | 43 | |
| 20260505121318 | 64 | 325 | 10.0 | 0.0 | 0.44 | 0.00 | 0.00 | 43 | |
| 20260505120817 | 64 | 318 | 17.0 | 0.0 | 0.44 | 0.00 | 0.00 | 43 | |
| 20260505120319 | 64 | 332 | 5.0 | 0.0 | 0.44 | 0.00 | 0.00 | 42 | |
| 20260505115819 | 64 | 11 | 7.0 | 0.0 | 0.44 | 0.00 | 0.00 | 41 | |
| 20260505115318 | 64 | 294 | 6.0 | 0.0 | 0.44 | 0.00 | 0.00 | 41 | |
| 20260505114818 | 64 | 311 | 19.0 | 0.0 | 0.44 | 0.00 | 0.00 | 42 | |
| 20260505114319 | 64 | 345 | 7.0 | 0.0 | 0.44 | 0.00 | 0.00 | 35 | |
| 20260505113817 | 64 | 0 | 14.0 | 0.0 | 0.44 | 0.00 | 0.00 | 41 | |
| 20260505113319 | 64 | 281 | 10.0 | 0.0 | 0.44 | 0.00 | 0.00 | 40 | |
| 20260505112819 | 65 | 340 | 6.0 | 0.0 | 0.44 | 0.00 | 0.00 | 39 | |
| 20260505112318 | 65 | 335 | 17.0 | 0.0 | 0.44 | 0.00 | 0.00 | 39 | |
| 20260505111818 | 65 | 328 | 8.0 | 0.0 | 0.44 | 0.00 | 0.00 | 39 | |
| 20260505111319 | 65 | 290 | 7.0 | 0.0 | 0.44 | 0.00 | 0.00 | 39 | |
| 20260505110818 | 65 | 13 | 6.0 | 0.0 | 0.44 | 0.00 | 0.00 | 38 | |
| 20260505110319 | 65 | 302 | 12.0 | 0.0 | 0.44 | 0.00 | 0.00 | 39 | |
| 20260505101819 | 66 | 284 | 14.0 | 0.0 | 0.44 | 0.00 | 0.00 | 32 | |
| 20260505101319 | 67 | 359 | 5.0 | 0.0 | 0.44 | 0.00 | 0.00 | 32 | |
| 20260505100818 | 66 | 15 | 8.0 | 0.0 | 0.44 | 0.00 | 0.00 | 32 | |
| 20260505100319 | 67 | 345 | 10.0 | 0.0 | 0.44 | 0.00 | 0.00 | 32 | |
| 20260505095818 | 66 | 300 | 16.0 | 0.0 | 0.44 | 0.00 | 0.00 | 32 | |
| 20260505095318 | 66 | 359 | 5.0 | 0.0 | 0.44 | 0.00 | 0.00 | 33 | |
| 20260505094818 | 66 | 315 | 12.0 | 0.0 | 0.44 | 0.00 | 0.00 | 33 | |
| 20260505094319 | 66 | 295 | 14.0 | 0.0 | 0.44 | 0.00 | 0.00 | 34 | |
| 20260505093818 | 67 | 349 | 8.0 | 0.0 | 0.44 | 0.00 | 0.00 | 34 | |
| 20260505093319 | 67 | 273 | 12.0 | 0.0 | 0.44 | 0.00 | 0.00 | 34 | |
| 20260505092819 | 67 | 0 | 9.0 | 0.0 | 0.44 | 0.00 | 0.00 | 33 | |
| 20260505092317 | 67 | 309 | 0.0 | 0.0 | 0.44 | 0.00 | 0.00 | 33 | |
| 20260505091818 | 67 | 330 | 9.0 | 0.0 | 0.44 | 0.00 | 0.00 | 33 |